Theta_e
339 337 339 339 339 339 338 338 339 339 339 338 338 338 339 339 339 339 338 337 336 336 335 333 333 336 335 336 334 333 333 333 332 329 328 328 326 326 331 330 331 330 333 333 329 326 323 319 320 329 329 330 332 332 331 330 331 334 333 333 332 331 334
338 338 338 338 338 338 338 338 337 337 338 339 338 338 339 339 339 339 337 335 337 336 334 333 334 333 333 333 329 330 333 333 333 334 330 331 330 328 328 329 329 330 329 331 333 332 325 322 320 320 322 330 331 331 331 331 332 334 333 332 333 333 334
337 336 337 336 338 338 337 337 338 338 338 338 338 338 338 339 339 339 337 336 336 336 335 335 334 333 333 332 332 334 332 331 333 331 330 332 332 332 332 329 326 329 330 327 329 326 327 325 319 321 325 324 320 325 333 331 332 333 334 334 334 333 334
336 336 334 335 336 338 336 336 336 336 337 337 337 338 337 338 338 337 338 337 336 337 336 337 337 337 335 334 336 333 331 333 335 334 332 332 332 333 330 330 331 330 326 324 327 328 327 321 324 323 325 325 325 326 327 331 331 333 334 334 333 333 333
336 335 335 335 336 336 335 334 335 335 336 336 337 336 336 338 337 336 337 337 336 337 337 338 337 337 338 338 336 334 334 336 338 337 335 334 329 331 333 335 333 332 330 328 331 329 329 327 325 323 322 325 325 325 327 331 333 332 332 332 332 332 332
335 335 335 335 336 335 334 334 335 333 335 335 335 336 338 337 336 336 336 336 336 336 337 336 337 339 340 338 337 335 336 335 336 335 335 336 335 330 333 333 335 334 330 331 331 330 331 329 327 324 323 326 325 327 328 329 329 331 332 332 331 331 330
332 333 333 333 334 335 334 334 334 334 334 335 335 335 336 337 336 336 337 337 338 338 339 339 338 338 338 337 337 336 334 333 334 335 336 337 336 336 336 332 332 333 333 334 333 332 331 326 327 326 323 324 326 323 327 328 328 325 329 331 330 331 328
331 331 331 332 332 332 332 332 333 334 333 334 334 336 337 339 338 337 337 338 338 339 339 339 337 336 335 336 337 337 333 332 331 334 333 334 333 334 338 336 335 335 336 332 331 329 330 330 329 327 326 322 323 323 321 327 326 325 324 328 329 328 327
331 331 331 331 331 332 332 332 332 334 334 334 335 336 338 339 337 337 337 337 338 338 338 338 336 335 337 337 336 337 335 333 330 330 333 332 333 336 337 337 333 330 332 332 330 337 336 334 329 329 328 324 319 317 321 322 323 322 327 324 326 328 328
331 331 331 332 332 333 333 333 332 333 334 333 333 335 336 338 337 336 335 336 337 337 338 335 336 338 337 336 336 335 333 332 332 331 333 330 334 336 335 335 331 330 333 331 333 337 335 335 332 331 331 327 325 321 319 320 321 321 324 326 323 326 329
328 330 331 332 333 333 333 332 332 331 332 333 333 335 335 334 336 336 335 335 335 338 338 336 335 337 337 335 334 333 334 333 332 335 335 335 336 337 334 331 330 331 333 333 335 338 337 336 335 332 331 330 330 322 323 318 320 324 323 327 327 324 327
326 328 330 331 332 332 331 332 332 332 333 334 335 334 334 334 334 335 334 335 336 337 337 336 337 337 336 335 335 334 335 335 335 335 336 335 336 333 331 331 333 332 333 335 334 336 337 337 335 333 330 331 330 327 327 322 321 323 328 324 325 327 325
323 326 329 330 331 331 331 332 332 332 333 335 334 333 333 333 334 333 333 333 335 336 336 337 336 335 337 337 336 335 336 335 334 335 335 336 334 333 332 332 333 333 334 333 330 332 333 335 335 332 330 331 333 331 331 327 322 321 328 328 326 327 326
320 323 326 330 331 331 331 331 331 333 334 334 332 332 333 332 332 333 332 333 334 335 337 336 335 334 334 334 334 334 335 335 333 333 333 333 333 334 333 332 333 334 336 333 329 329 331 334 335 333 332 331 331 330 330 328 323 321 326 331 328 325 327
318 320 322 326 329 330 331 331 331 332 331 331 332 331 333 334 333 332 332 331 333 334 334 335 334 334 333 333 333 334 335 334 333 332 332 332 333 333 334 333 332 334 335 333 330 331 332 334 332 331 330 331 329 331 332 329 328 323 322 325 327 327 326
315 318 320 324 326 327 329 330 331 331 330 331 331 332 332 333 332 332 329 329 331 329 333 334 335 335 334 334 333 333 335 335 334 332 331 332 331 332 333 333 333 334 336 335 334 333 335 333 331 327 329 330 329 330 331 330 327 325 324 322 325 325 326
314 314 317 320 323 326 328 330 330 331 329 330 330 329 330 332 333 334 333 333 332 332 334 334 334 334 334 334 333 333 333 334 334 333 333 332 331 331 332 333 333 334 335 333 333 333 333 331 331 331 330 329 331 331 332 332 330 327 323 320 322 322 322
312 312 313 316 319 324 328 329 330 328 328 327 328 329 328 330 330 333 331 327 327 330 334 334 334 334 334 335 334 334 333 333 334 333 333 333 332 332 332 332 333 333 334 332 334 332 332 332 331 332 332 329 329 331 330 328 328 328 325 321 320 321 321
311 312 312 314 316 320 326 330 331 328 327 327 326 329 327 329 329 329 328 329 329 330 334 335 334 334 334 334 334 334 334 334 333 333 333 333 333 333 333 333 333 333 333 332 333 334 333 332 331 331 330 328 328 330 329 329 327 325 324 322 320 317 321
311 311 311 312 315 319 324 329 329 326 326 326 326 328 329 328 330 330 331 331 331 333 334 335 335 335 335 334 333 332 333 333 333 334 334 333 334 334 334 334 334 334 333 333 333 333 333 333 332 332 331 332 331 327 328 326 324 324 325 322 320 319 319
312 311 311 311 313 315 320 325 327 326 326 324 327 327 328 328 330 331 330 330 327 330 332 333 335 335 334 334 334 334 334 334 332 333 335 335 335 335 335 335 334 334 334 334 334 333 333 332 333 333 333 334 332 330 326 326 325 321 322 321 320 319 317
311 311 310 310 310 311 314 319 324 326 326 326 327 328 327 329 328 328 331 330 328 328 327 330 334 335 334 332 332 331 334 333 333 332 331 332 333 333 334 334 333 333 334 332 324 322 324 326 334 332 334 332 331 330 325 325 318 321 322 320 319 320 317
310 311 310 309 309 309 310 312 314 318 325 327 325 327 327 326 327 327 330 330 329 330 331 332 328 318 320 332 332 332 332 333 332 332 331 331 331 331 332 333 333 329 325 323 318 314 311 314 319 329 336 332 328 328 328 324 322 322 320 319 319 318 317
310 309 309 309 309 308 308 309 310 310 311 314 318 324 327 325 326 327 330 330 330 330 332 332 309 308 309 311 328 334 333 331 333 332 331 330 329 330 332 332 333 328 326 322 324 307 308 306 307 308 307 306 310 328 327 324 322 321 319 320 322 321 318
309 309 309 308 308 307 307 306 306 307 308 309 311 313 314 316 319 322 327 327 328 328 330 298 300 303 304 304 309 333 334 333 332 331 331 330 330 330 331 332 333 333 331 331 331 327 316 306 305 304 298 298 296 294 299 322 326 323 325 321 320 322 321
308 308 308 307 307 307 306 305 305 305 305 306 308 308 309 311 312 315 317 320 323 325 321 294 293 293 296 297 298 309 332 333 332 332 333 332 332 331 331 331 333 334 331 325 328 330 329 321 299 295 296 297 296 295 295 296 301 328 329 327 324 323 323
307 308 308 307 307 306 305 304 304 305 305 305 305 305 306 307 308 309 311 313 318 321 315 296 293 292 293 293 295 299 329 332 332 332 333 333 333 333 332 331 331 331 332 330 330 331 330 328 323 319 321 325 321 308 298 298 299 296 309 328 331 327 328
307 307 307 307 307 306 305 304 303 304 304 303 304 304 303 304 305 306 306 306 310 316 310 293 292 292 293 292 293 295 323 330 331 332 333 334 334 334 333 333 333 331 331 329 330 328 330 327 326 326 325 323 320 319 320 320 322 323 324 325 326 325 322
306 306 306 306 306 305 305 304 303 303 303 303 304 304 304 304 304 304 304 304 305 306 307 294 292 292 292 293 292 308 321 328 329 330 330 333 333 334 333 333 333 332 331 330 316 308 316 328 327 324 320 317 314 311 307 297 294 299 317 321 319 318 313
305 306 306 306 305 305 304 304 303 303 302 302 301 302 302 303 303 303 302 301 301 303 303 297 292 291 291 292 295 313 320 326 327 328 329 329 329 332 333 332 333 332 331 331 307 301 303 310 324 320 316 314 312 311 308 305 295 293 292 292 292 292 293
305 305 305 305 304 305 305 305 304 304 303 302 301 300 301 301 302 303 302 301 300 301 301 297 292 291 292 291 296 312 320 325 325 326 326 327 328 328 317 303 312 330 330 325 296 297 298 313 322 319 317 314 312 310 308 307 306 301 294 294 294 294 294
304 304 304 304 304 304 305 305 305 305 304 304 303 302 301 300 300 301 301 301 300 300 300 299 293 291 291 292 300 310 316 322 323 323 323 322 323 321 317 308 297 302 322 308 294 296 297 308 323 319 316 314 311 309 308 309 308 307 308 309 310 309 307
304 303 303 304 304 304 305 305 305 305 304 304 303 303 302 302 300 299 300 300 301 300 299 299 296 290 291 292 293 305 310 314 317 317 318 318 318 316 313 310 301 292 292 293 294 294 293 292 317 319 318 315 312 309 311 313 313 313 311 310 309 309 308
304 304 304 304 304 304 304 304 304 304 304 304 303 303 302 302 301 301 301 300 299 299 298 298 297 291 291 292 292 298 305 304 307 309 309 310 313 312 308 304 299 292 291 291 291 291 292 292 302 320 319 317 315 312 308 310 307 302 309 307 307 306 306
305 304 304 304 304 302 303 303 303 303 303 303 303 303 303 302 301 301 301 301 300 299 299 296 296 294 290 291 291 293 301 301 302 303 300 299 299 301 301 301 299 293 290 291 291 292 292 295 297 311 306 296 295 297 310 310 311 310 309 308 307 306 305
304 304 303 304 303 302 303 303 303 302 302 302 302 301 302 302 301 300 300 300 300 300 299 298 293 294 291 290 290 291 292 295 294 301 299 297 297 297 299 298 295 291 290 290 291 291 293 294 297 300 292 293 294 295 301 310 309 310 308 308 307 306 304
305 305 304 303 302 302 302 302 301 301 301 301 299 299 299 299 299 299 299 299 299 299 299 299 296 293 293 290 290 290 290 290 292 296 296 295 295 295 295 294 292 290 290 290 290 290 290 292 295 291 292 293 295 298 306 306 305 305 304 302 303 302 302
Wind_Speed
7 7 6 6 5 6 6 6 5 6 7 8 9 10 11 10 9 8 8 9 8 8 7 9 11 8 7 7 9 9 8 8 9 8 7 8 10 8 6 6 8 8 5 3 6 7 7 9 9 6 7 8 9 7 7 7 8 6 5 4 6 6 5
6 6 6 5 5 6 7 7 7 7 8 9 10 11 11 9 8 8 8 9 9 8 8 10 10 10 9 8 10 11 9 8 8 7 8 8 8 9 7 10 8 7 8 6 6 4 5 6 7 9 10 7 5 7 7 6 6 7 6 6 6 6 6
6 6 6 7 7 6 7 7 6 7 7 7 8 10 9 9 9 9 9 10 9 9 9 9 11 11 10 11 10 8 9 10 9 9 10 8 8 7 6 7 9 8 5 7 11 8 5 4 7 11 10 10 9 8 5 6 8 8 7 6 7 7 6
8 7 7 8 8 6 6 6 6 6 6 6 6 8 9 9 9 8 9 10 9 8 8 9 9 9 9 10 9 8 11 11 8 10 9 6 4 6 8 9 7 6 7 9 9 9 9 12 9 8 9 10 10 7 10 10 8 9 8 7 7 6 6
9 7 8 9 7 7 6 7 7 7 7 6 7 6 9 9 9 9 9 9 9 9 8 7 8 8 8 8 8 9 9 9 7 7 8 9 10 10 10 7 8 7 5 8 2 5 7 3 4 7 10 10 10 10 10 9 10 8 9 8 8 7 7
8 9 9 10 8 7 7 8 8 8 7 7 8 9 10 11 9 9 10 10 10 9 8 8 7 6 6 6 6 7 7 8 8 9 9 10 10 8 7 7 7 6 7 8 6 7 3 3 7 6 10 10 8 6 8 10 8 8 8 8 8 7 8
7 8 9 9 9 8 7 8 8 7 6 7 8 9 8 10 10 10 10 11 10 9 9 9 7 7 6 5 6 7 8 7 7 9 9 9 9 11 8 8 6 8 9 5 6 6 5 6 7 4 5 7 10 7 7 9 9 9 8 8 9 7 9
7 7 8 8 9 9 8 9 8 8 7 7 7 8 9 10 10 10 10 10 10 9 9 8 7 7 7 6 6 7 5 7 8 7 8 9 9 11 10 8 6 7 5 4 8 9 8 8 5 8 8 8 6 9 8 9 10 12 9 9 9 9 8
8 7 8 8 8 8 9 9 8 8 8 7 7 8 9 9 9 10 10 10 10 10 9 9 9 8 8 8 7 8 9 6 7 10 6 9 11 11 10 8 6 7 5 5 8 7 3 1 6 7 8 9 11 9 9 10 10 10 11 9 9 8 8
11 11 10 10 10 10 9 9 8 8 8 7 7 7 8 8 8 9 9 10 10 9 9 10 10 9 9 9 8 9 10 11 9 13 11 12 9 9 8 8 7 9 10 11 9 6 5 4 5 7 8 9 8 9 7 8 10 8 11 11 9 9 9
11 12 11 11 10 10 10 8 7 8 9 8 8 7 7 8 9 10 10 9 10 10 10 9 10 9 9 9 9 9 8 9 11 10 9 9 9 8 7 7 8 8 7 7 7 7 6 6 4 4 6 8 8 9 9 9 8 8 9 10 8 9 10
11 11 11 11 10 11 10 9 8 7 8 7 7 8 8 9 9 9 10 11 11 11 10 10 9 9 9 7 8 7 8 9 9 9 8 9 8 7 8 10 9 7 6 4 4 5 6 6 5 4 7 8 4 7 7 7 4 6 7 9 8 8 11
12 12 12 11 11 11 10 10 8 8 8 7 8 8 8 9 10 10 10 11 12 12 12 11 11 10 9 9 9 9 9 10 10 10 9 9 7 8 10 10 9 8 7 5 7 8 7 7 6 6 6 7 6 7 3 2 5 4 6 7 9 8 12
14 12 13 13 12 11 10 9 9 8 8 8 9 9 9 10 11 10 11 10 12 12 12 11 10 10 10 9 8 9 10 11 11 9 8 9 10 9 10 10 9 10 9 8 7 8 8 9 8 7 6 6 10 7 7 4 6 9 7 5 7 8 9
11 12 13 12 12 12 11 11 9 9 9 9 9 10 9 9 10 11 10 10 14 12 13 11 11 10 9 9 9 8 9 11 11 10 9 10 10 8 8 10 10 9 10 9 11 12 10 8 8 7 8 7 11 9 8 7 8 8 7 6 7 8 9
12 13 13 11 11 12 12 11 9 8 8 8 7 7 9 10 11 10 11 12 10 9 12 11 11 11 10 10 10 10 9 10 10 10 10 10 10 9 9 10 10 9 8 9 9 9 7 8 7 9 10 12 11 9 10 10 10 8 9 8 7 9 9
13 13 13 12 13 13 12 11 8 7 5 5 7 8 11 10 9 11 11 8 8 12 12 11 10 10 10 10 10 10 10 10 10 10 10 10 9 9 9 9 10 10 9 9 9 10 9 10 10 9 16 14 10 8 5 4 5 5 7 7 9 9 9
13 13 13 13 15 15 12 10 8 7 5 6 7 8 8 10 9 8 7 9 10 11 11 11 11 10 9 9 9 9 9 9 9 10 9 9 9 9 9 9 9 10 9 9 10 10 10 12 10 10 9 10 9 9 7 6 5 6 6 7 8 8 9
14 14 13 13 14 14 13 10 9 8 6 6 9 7 8 6 11 9 13 12 12 14 12 11 10 10 10 10 9 9 9 8 8 9 9 9 9 9 9 10 9 10 10 10 9 10 11 12 11 11 11 11 11 11 8 6 6 10 9 6 7 8 7
13 14 13 13 13 13 13 11 9 8 7 7 8 6 6 9 6 12 11 14 13 11 11 10 10 10 10 9 10 10 9 9 9 8 9 10 9 9 9 10 10 10 10 10 10 10 10 11 10 12 10 11 4 4 9 6 7 9 8 8 7 8 8
13 14 13 12 12 13 14 12 9 8 7 7 4 5 6 7 7 7 8 4 4 5 4 7 9 9 9 8 8 9 9 8 9 8 9 9 9 9 9 9 10 10 11 10 10 10 10 10 10 12 10 5 7 5 7 8 3 8 8 8 8 8 8
13 13 13 12 12 13 13 13 11 7 5 4 4 5 7 7 6 9 5 5 7 7 11 12 9 9 9 9 9 9 9 9 9 9 8 9 8 9 9 8 8 9 9 6 4 6 5 3 9 10 8 6 3 5 6 7 6 3 6 9 10 8 8
14 14 14 14 14 13 12 12 12 12 8 4 3 5 6 8 7 8 7 7 11 10 4 7 5 8 6 8 9 8 8 8 9 8 9 9 9 9 9 8 8 9 4 4 4 3 3 2 2 3 2 3 4 7 5 10 9 6 2 4 5 7 7
14 15 14 14 14 15 14 12 11 11 12 12 11 9 6 7 8 9 9 7 5 5 8 5 7 6 5 6 6 8 8 8 8 8 8 8 9 9 9 9 9 9 7 6 6 7 5 3 3 2 4 8 4 4 4 5 8 11 10 9 9 8 7
15 15 15 15 15 15 14 14 13 12 11 11 10 10 11 11 11 10 8 8 8 7 2 15 10 4 2 6 8 6 8 8 8 8 9 9 9 8 9 8 8 8 9 11 11 8 5 2 1 5 7 8 7 7 5 7 10 9 9 10 11 11 11
16 16 16 15 15 14 14 14 14 14 14 12 9 10 10 10 10 10 10 9 8 8 10 16 17 17 12 10 12 11 7 8 8 8 8 9 9 8 8 8 8 7 7 9 9 9 9 6 7 8 8 9 8 7 6 3 3 4 9 10 10 11 11
16 16 16 15 15 15 15 14 14 12 12 12 11 10 9 10 9 10 10 10 8 6 8 14 16 15 13 12 13 10 10 8 8 8 8 9 8 8 8 8 8 7 7 8 10 9 9 9 7 7 6 6 5 6 6 5 2 4 4 6 8 7 3
16 16 16 16 15 15 15 14 14 12 12 12 12 11 11 10 9 9 10 10 9 6 8 19 17 16 14 12 12 10 10 10 8 8 8 9 9 8 8 8 8 8 8 9 10 9 9 9 9 9 8 7 6 5 4 2 2 4 5 4 2 4 5
15 15 16 16 16 16 15 15 14 12 11 10 9 10 10 10 11 11 11 10 9 8 9 17 18 16 14 12 9 7 10 11 9 8 8 9 8 7 8 8 8 9 9 9 9 8 8 9 10 10 8 7 7 6 7 5 6 9 6 5 5 4 4
16 16 16 16 16 15 15 15 14 12 12 11 11 10 10 10 10 11 12 12 11 7 7 12 16 17 16 11 5 6 10 10 9 8 8 8 8 7 4 3 6 8 8 8 12 11 8 10 10 10 9 8 7 7 6 7 12 14 15 16 16 14 12
15 16 15 16 15 14 14 13 13 12 12 12 12 12 10 10 10 10 12 12 11 9 9 11 16 15 16 14 8 7 9 10 9 7 6 5 6 5 6 11 10 2 8 7 12 11 11 10 9 10 10 11 10 9 8 7 8 9 14 15 15 14 13
14 14 15 15 14 15 14 13 12 12 11 11 11 11 11 11 11 11 11 11 15 13 10 10 16 16 14 14 10 7 7 7 6 5 6 5 4 4 4 8 13 10 2 12 13 12 8 5 8 9 11 10 10 10 9 10 10 11 10 10 9 9 9
13 13 14 14 13 13 13 13 13 12 12 11 11 11 11 11 12 11 11 11 11 12 13 11 14 18 15 13 12 7 8 6 3 3 3 4 5 5 5 5 9 12 13 12 11 7 4 8 6 10 10 9 11 11 10 9 8 9 9 9 9 8 9
14 14 13 12 12 12 11 12 13 13 12 11 11 11 12 11 11 11 11 12 12 13 13 14 13 18 17 15 13 8 4 6 5 3 5 4 3 4 5 6 6 9 12 10 9 10 9 10 4 9 8 8 8 12 11 9 9 9 10 9 8 8 8
13 12 13 13 12 12 11 12 11 12 11 12 13 12 12 12 11 11 11 12 13 13 15 20 14 16 19 17 16 13 6 5 5 7 9 9 9 8 7 6 5 8 14 12 12 12 13 14 15 10 12 17 17 14 10 10 9 8 8 8 7 7 7
12 11 12 13 14 13 12 12 12 12 12 12 13 13 13 12 12 12 11 11 11 13 13 15 19 16 19 18 18 18 15 9 11 10 9 9 8 7 7 7 6 12 17 15 14 14 14 16 14 11 15 14 12 11 10 8 7 7 7 7 7 7 7
12 12 13 13 13 14 14 13 12 12 12 12 12 13 12 11 11 11 12 12 12 12 12 12 15 18 17 20 21 21 19 16 14 12 10 9 8 8 8 8 8 14 18 19 19 19 18 15 11 13 13 12 10 8 8 7 7 7 7 7 7 7 7
Wind_Direction
253 264 264 255 244 245 259 244 240 235 230 230 224 225 236 238 233 219 211 219 222 218 195 204 207 196 186 180 174 187 192 187 186 191 192 202 198 211 203 209 228 246 277 220 221 187 193 188 197 198 227 208 195 209 213 202 182 167 181 175 173 165 172
267 268 267 256 235 234 242 241 232 234 226 226 225 227 233 238 235 221 206 215 213 209 195 203 203 194 184 186 189 193 185 192 199 197 191 201 202 213 195 213 219 230 223 231 238 194 194 184 185 186 198 179 205 200 211 207 189 168 187 193 183 173 159
260 258 256 254 243 233 243 250 240 232 232 230 231 232 232 230 231 225 210 205 207 209 205 199 189 179 185 197 192 183 191 196 206 209 210 210 209 216 216 217 221 216 211 219 202 176 217 173 188 195 189 183 191 205 191 209 193 180 192 185 186 184 166
281 275 261 256 253 245 244 246 250 250 249 242 237 234 226 224 230 228 222 205 200 207 208 201 188 184 186 195 178 186 212 206 204 205 210 208 214 229 223 225 216 199 210 219 213 197 199 195 202 177 189 191 190 175 202 196 197 186 192 183 194 185 169
292 281 262 259 261 259 248 241 241 240 233 227 219 230 229 220 220 218 224 214 202 199 205 207 196 184 186 190 189 190 200 204 206 208 211 210 210 220 221 219 225 217 228 251 299 244 234 250 241 166 194 186 193 184 187 184 194 189 193 185 195 181 176
300 291 283 275 267 263 257 241 237 242 236 226 224 220 223 219 217 216 215 209 202 201 201 205 200 190 194 189 193 177 201 197 207 213 220 219 216 221 221 223 219 216 211 229 200 242 259 226 245 225 191 178 184 157 175 176 185 189 193 187 201 179 176
296 295 289 282 281 274 267 260 252 251 252 244 235 229 221 223 218 216 215 207 202 195 195 202 194 192 188 189 186 194 187 201 215 225 230 228 229 232 223 218 217 229 230 209 224 230 225 211 241 231 216 170 175 173 183 185 181 184 187 199 195 177 192
295 291 289 280 277 280 277 269 260 255 250 244 242 231 217 215 220 214 215 204 197 195 194 191 186 185 185 193 196 196 200 211 218 224 230 226 228 228 227 232 222 231 226 189 225 219 197 236 207 211 216 169 176 191 174 196 185 196 182 193 185 195 195
306 291 278 277 271 269 271 268 262 257 249 248 249 243 223 214 213 214 213 204 201 198 189 183 184 188 189 192 191 197 194 197 206 224 226 234 231 229 232 225 223 237 235 224 236 227 188 167 278 274 225 194 186 186 182 185 193 194 187 183 180 183 172
320 310 302 288 279 271 265 259 256 259 262 253 252 247 243 221 217 217 211 205 201 201 194 190 191 195 192 191 193 196 201 204 211 217 208 219 214 225 227 222 233 231 207 209 213 217 204 192 227 264 233 215 203 199 155 198 198 189 185 184 180 177 181
320 313 304 299 293 284 272 255 248 249 249 245 242 235 244 232 219 213 211 211 214 202 201 189 200 193 189 198 204 208 207 208 215 222 217 217 217 213 214 229 225 228 238 231 214 216 215 219 223 268 290 242 214 215 167 188 200 190 182 184 186 173 181
325 314 306 301 293 285 283 279 263 254 249 242 241 233 232 231 224 217 212 211 210 204 199 195 195 192 192 201 206 214 214 214 216 219 218 218 220 212 221 226 224 226 217 235 234 208 223 224 229 219 251 262 195 234 237 188 155 198 197 180 198 177 173
325 320 311 302 296 291 287 279 272 255 251 249 245 238 235 233 222 219 212 211 210 203 199 199 197 195 193 200 203 213 216 216 217 216 214 216 219 214 218 225 219 217 205 189 221 220 215 217 217 226 242 261 257 224 208 156 171 159 260 182 191 175 173
327 325 322 316 301 292 285 283 276 270 255 242 242 235 230 230 223 216 210 210 212 202 201 199 191 197 201 205 209 216 215 213 214 212 215 216 218 219 222 219 216 212 212 195 212 219 214 208 205 218 237 243 236 218 212 149 221 161 185 188 184 186 169
328 327 325 320 315 302 295 286 279 263 258 249 238 234 229 230 226 212 213 209 214 202 208 194 194 201 200 200 200 203 209 211 211 210 209 215 211 216 214 221 217 209 211 202 217 206 200 205 203 210 234 240 234 206 213 195 208 154 172 180 187 185 166
333 332 330 326 319 317 301 288 284 275 262 254 243 238 228 231 225 209 205 214 213 227 212 196 196 201 198 196 197 201 207 208 206 208 209 210 211 208 212 219 219 209 203 211 209 227 182 199 187 196 218 226 224 214 206 206 224 177 170 188 182 184 173
338 338 335 330 326 313 305 295 288 284 288 276 230 227 243 239 229 220 215 211 223 205 197 197 198 200 199 198 200 200 206 207 207 207 209 208 206 207 212 216 220 213 204 209 212 213 191 211 207 202 211 210 204 209 203 233 195 251 195 174 184 190 180
342 339 334 330 326 321 309 302 294 291 273 276 277 252 237 239 240 219 200 206 218 229 204 195 196 197 196 197 199 204 205 207 207 210 208 209 207 209 208 215 217 215 209 211 211 215 213 212 205 217 212 223 189 198 195 199 206 254 234 180 184 199 172
344 341 336 331 326 320 314 303 298 294 273 262 263 262 247 237 230 200 210 206 207 213 204 194 194 194 191 190 198 201 203 203 206 208 208 210 207 211 212 213 217 216 211 212 216 213 213 210 219 222 222 222 212 186 168 168 213 204 224 204 175 189 179
345 344 342 333 327 325 324 323 304 296 301 280 271 269 259 243 214 239 212 204 200 205 198 192 190 188 192 192 195 198 197 200 201 206 208 208 207 208 212 214 213 212 215 213 217 214 212 216 215 224 222 226 232 214 134 169 208 215 217 212 188 181 188
349 348 345 340 337 335 331 328 318 305 296 292 306 314 271 259 255 243 245 46 342 288 278 205 191 187 188 189 193 196 197 195 201 204 211 210 203 205 205 212 216 213 215 215 216 216 217 216 220 221 219 253 214 162 148 163 192 229 208 222 214 185 196
352 353 353 349 350 348 344 342 329 303 287 305 309 306 327 318 288 269 236 183 227 222 211 217 191 187 185 185 192 202 200 196 201 202 208 210 207 207 202 207 215 219 220 237 256 314 291 262 225 220 220 213 289 270 168 143 143 244 237 212 213 204 196
359 359 356 356 355 350 350 346 352 339 338 348 321 323 336 311 304 271 268 214 208 215 188 235 153 176 205 186 192 199 197 199 200 200 205 205 207 209 203 202 205 211 209 173 150 169 146 226 301 320 249 199 181 251 191 154 175 168 213 233 233 217 205
5 6 4 1 358 1 357 357 354 356 352 358 0 351 332 333 332 298 300 292 253 227 218 161 129 183 182 262 234 194 195 199 200 200 199 204 208 205 207 202 200 177 178 183 180 175 206 213 216 235 60 59 66 193 154 175 155 169 206 224 221 215 199
9 10 10 7 7 3 1 2 3 3 4 2 357 2 10 359 358 342 335 304 315 297 328 31 15 44 263 270 266 236 199 203 199 204 206 203 208 206 205 202 199 196 205 207 211 194 192 179 106 95 89 88 86 72 102 190 177 193 210 213 211 213 210
13 13 13 12 10 10 8 5 5 5 6 5 1 7 10 8 358 353 344 347 353 3 29 27 7 349 337 315 300 297 233 208 210 207 208 208 208 203 200 198 204 196 188 176 205 195 193 156 97 107 119 106 76 70 75 68 357 212 209 223 221 216 215
15 15 16 15 14 14 13 10 6 6 5 6 11 12 9 11 4 357 354 350 356 11 39 17 8 352 334 320 297 296 264 233 219 215 216 210 204 201 195 192 200 196 179 175 200 197 187 179 170 152 165 193 150 119 105 100 246 261 301 241 222 211 187
15 16 16 17 17 16 16 13 11 8 11 11 11 10 7 6 8 8 8 0 358 6 51 18 4 352 341 318 297 285 270 256 231 226 221 214 207 201 194 197 198 195 193 195 200 196 188 179 180 176 178 162 131 118 85 85 229 231 232 287 358 39 29
15 14 14 16 17 17 16 17 15 12 10 13 12 9 12 9 6 9 9 13 12 2 12 17 358 353 345 324 299 265 254 251 239 233 225 216 211 201 201 198 201 195 187 198 154 177 205 181 177 171 156 126 107 86 65 35 14 37 58 79 102 123 90
17 16 15 16 15 16 15 16 18 17 18 17 13 11 7 7 6 8 11 12 5 3 0 7 1 356 348 342 283 254 251 251 247 233 228 220 210 196 185 215 212 200 182 184 135 160 149 167 163 151 137 127 115 105 94 72 58 72 82 86 90 91 90
16 15 16 16 15 15 14 17 19 18 21 20 20 20 14 14 12 12 10 13 8 357 359 4 3 1 358 349 329 283 271 250 240 222 202 211 218 192 63 35 0 248 188 131 140 144 161 178 164 152 143 135 129 119 115 112 103 85 88 89 87 86 83
15 13 15 16 16 16 16 15 15 20 23 24 26 24 24 24 20 18 14 15 16 13 2 1 3 354 6 358 350 310 293 262 224 187 172 159 151 142 114 50 28 2 79 124 141 152 167 241 166 156 150 142 133 130 131 136 125 121 120 116 107 96 73
19 17 15 18 17 17 16 15 14 16 19 22 24 24 25 25 27 24 21 18 19 18 10 3 6 359 360 8 4 354 324 305 232 187 179 156 141 110 93 79 45 35 78 109 117 97 49 347 190 158 158 146 139 131 143 136 117 118 112 106 100 92 91
23 24 24 20 20 18 16 15 14 14 16 20 21 23 24 24 23 25 24 25 23 23 21 9 5 6 4 10 17 25 33 10 356 48 58 43 59 92 84 66 71 62 61 61 68 68 49 27 22 160 158 151 131 125 128 117 97 102 106 105 103 98 89
25 25 23 25 26 24 20 21 17 14 11 12 15 18 21 22 24 23 21 22 23 21 25 26 14 12 11 16 21 24 39 43 34 63 61 51 32 29 43 61 61 74 79 71 68 69 62 59 54 68 76 89 100 115 123 121 129 131 129 127 121 114 109
29 28 27 26 27 25 23 24 23 22 20 17 17 15 15 15 20 22 23 23 21 22 22 28 22 23 21 24 30 35 31 30 62 69 76 64 55 47 43 56 58 73 73 67 66 64 69 72 72 77 84 86 95 115 130 132 133 135 126 119 113 108 108
28 31 30 30 32 30 27 23 26 22 23 23 21 21 18 14 13 17 18 18 22 22 23 27 27 25 32 34 38 39 39 37 59 73 67 64 56 55 54 57 57 72 82 78 71 67 55 52 69 73 76 78 80 88 102 104 103 95 92 91 88 81 74